Location: Eberbach
(49.4690°N, 8.9930°E)
Time: 09:27:16
(UTC+02:00)

ISS - Visible Passes

Search period start: 19 October 2019 00:00
Search period end: 28 October 2019 23:00
Orbit: 411 x 421 km, 51.6° (Epoch: 19 October)

Date Brightness Start Highest point End Pass type
(mag) Time Alt. Az. Time Alt. Az. Time Alt. Az.
24 Oct -0.7 06:50:22 10° SSE 06:51:53 13° SE 06:53:24 10° ESE visible
26 Oct -1.7 06:48:11 10° SSW 06:51:03 26° SE 06:53:57 10° E visible
27 Oct -1.2 05:00:52 13° S 05:02:37 18° SE 05:04:58 10° E visible
28 Oct -0.6 04:14:43 11° SE 04:14:43 11° SE 04:15:28 10° ESE visible
28 Oct -3.1 05:47:38 14° SW 05:50:21 53° SSE 05:53:39 10° ENE visible
